Location: Kumla
(59.1265°N, 15.1401°E)
Time: 15:20:09
(UTC+01:00)

A-11 Canister half - Pass Details

Date: 05 December 2023
Orbit: 1512 x 1687 km, 47.2° (Epoch: 25 February)

Event Time Altitude Azimuth Distance (km) Brightness Sun altitude
Rises 22:31:14 0° 181° (S) 4,723 - -50.7°
Reaches altitude 10° 22:36:10 10° 159° (SSE) 3,779 - -51.0°
Maximum altitude 22:40:44 15° 130° (SE) 3,463 - -51.3°
Drops below altitude 10° 22:45:21 10° 101° (E) 3,855 - -51.5°
Sets 22:50:27 0° 80° (E) 4,881 - -51.8°
